Weather History for KCHS - July, 2012

Change the Weather History Date:

Monday, July 9, 2012

  Actual Average Record
Temperature  
Mean Temperature 89 °F 82 °F  
Max Temperature 98 °F 91 °F 103 °F (1986)
Min Temperature 79 °F 73 °F 59 °F (1972)
Degree Days  
Heating Degree Days 0 0  
Month to date heating degree days 0 0  
Since 1 June heating degree days 0 1  
Since 1 July heating degree days 0 0  
Cooling Degree Days 24 17  
Month to date cooling degree days 185 150  
Year to date cooling degree days 1091 933  
Since 1 June cooling degree days 526 571  
Growing Degree Days 39 (Base 50)    
Moisture  
Dew Point 73 °F    
Average Humidity 64    
Maximum Humidity 85    
Minimum Humidity 42    
Precipitation  
Precipitation 0.00 in 0.21 in 2.71 in (2011)
Month to date precipitation T 1.86  
Year to date precipitation 22.59 23.82  
Sea Level Pressure  
Sea Level Pressure 29.94 in    
Wind  
Wind Speed 11 mph (SW)    
Max Wind Speed 23 mph    
Max Gust Speed 28 mph    
Visibility 10 miles    
Events      
T = Trace of Precipitation, MM = Missing Value Source: NWS Daily Summary

Daily Weather History Graph

Daily Weather History Graph

Search for Another Location

Airport or City:

Trip Planner

Search our weather history database for the weather conditions in past years. The results will help you decide how hot, cold, wet, or windy it might be!

Date:

Astronomy

Jul. 09, 2012 Rise Set
Actual Time 6:19 AM EDT 8:31 PM EDT
Civil Twilight 5:51 AM EDT 8:59 PM EDT
Nautical Twilight 5:16 AM EDT 9:33 PM EDT
Astronomical Twilight 4:39 AM EDT 10:11 PM EDT
Moon No Moon Rise 12:21 PM EDT (7/9)
Length of Visible Light 15h 08m
Length of Day
14h 11m
Waning Gibbous, 64% of the Moon is Illuminated
Jul 9
Waning Gibbous
Jul 10
Last Quarter
Jul 19
New
Jul 26
First Quarter
Aug 1
Full

Hourly Weather History & Observations

Time (EDT) Temp. Heat Index Dew Point Humidity Pressure Visibility Wind Dir Wind Speed Gust Speed Precip Events Conditions
12:56 AM 82.0 °F 89.4 °F 75.9 °F 82% 29.98 in 10.0 mi SSW 10.4 mph - N/A   Clear
1:56 AM 82.0 °F 89.4 °F 75.9 °F 82% 29.97 in 10.0 mi SW 10.4 mph - N/A   Clear
2:56 AM 82.0 °F 89.4 °F 75.9 °F 82% 29.96 in 10.0 mi SW 9.2 mph - N/A   Clear
3:56 AM 82.0 °F 88.6 °F 75.0 °F 79% 29.96 in 10.0 mi SW 8.1 mph - N/A   Clear
4:56 AM 81.0 °F 87.3 °F 75.9 °F 85% 29.95 in 10.0 mi SW 6.9 mph - N/A   Clear
5:56 AM 81.0 °F 86.7 °F 75.0 °F 82% 29.95 in 10.0 mi SW 6.9 mph - N/A   Clear
6:56 AM 80.1 °F 84.5 °F 73.9 °F 81% 29.95 in 10.0 mi WSW 9.2 mph - N/A   Clear
7:56 AM 82.0 °F 87.4 °F 73.0 °F 74% 29.96 in 10.0 mi West 6.9 mph - N/A   Clear
8:56 AM 86.0 °F 92.2 °F 72.0 °F 63% 29.96 in 10.0 mi WSW 8.1 mph - N/A   Clear
9:56 AM 89.1 °F 96.0 °F 72.0 °F 57% 29.96 in 10.0 mi West 8.1 mph - N/A   Clear
10:56 AM 91.9 °F 99.5 °F 72.0 °F 52% 29.96 in 10.0 mi SW 9.2 mph - N/A   Partly Cloudy
11:56 AM 93.0 °F 100.1 °F 71.1 °F 49% 29.95 in 10.0 mi SW 11.5 mph - N/A   Partly Cloudy
12:56 PM 96.1 °F 103.5 °F 71.1 °F 44% 29.94 in 10.0 mi SW 11.5 mph - N/A   Scattered Clouds
1:56 PM 96.1 °F 101.6 °F 69.1 °F 41% 29.93 in 10.0 mi SW 10.4 mph 18.4 mph N/A   Scattered Clouds
2:56 PM 97.0 °F 103.5 °F 70.0 °F 41% 29.91 in 10.0 mi WSW 9.2 mph - N/A   Scattered Clouds
3:56 PM 96.1 °F 108.6 °F 75.0 °F 51% 29.89 in 10.0 mi SSW 16.1 mph - N/A   Scattered Clouds
4:56 PM 93.9 °F 104.0 °F 73.9 °F 52% 29.88 in 10.0 mi SSW 17.3 mph - N/A   Scattered Clouds
5:56 PM 91.9 °F 100.7 °F 73.0 °F 54% 29.88 in 10.0 mi SSW 16.1 mph 24.2 mph N/A   Scattered Clouds
6:56 PM 89.1 °F 97.0 °F 73.0 °F 59% 29.89 in 10.0 mi SSW 19.6 mph - N/A   Partly Cloudy
7:56 PM 86.0 °F 93.0 °F 73.0 °F 65% 29.91 in 10.0 mi SSW 17.3 mph - N/A   Partly Cloudy
8:56 PM 84.0 °F 91.2 °F 73.9 °F 72% 29.91 in 10.0 mi SSW 11.5 mph - N/A   Scattered Clouds
9:56 PM 82.9 °F 90.2 °F 75.0 °F 77% 29.94 in 10.0 mi SSW 11.5 mph - N/A   Scattered Clouds
10:56 PM 82.9 °F 90.2 °F 75.0 °F 77% 29.96 in 10.0 mi SSW 11.5 mph - N/A   Partly Cloudy
11:56 PM 82.9 °F 90.2 °F 75.0 °F 77% 29.98 in 10.0 mi NNE 6.9 mph - N/A   Mostly Cloudy